Location: Chervonnoye
(48.6000°N, 34.4000°E)
Time: 20:31:04
(UTC+00:00)

BEESAT 3 - Pass Details

Date: 12 December 2021
Orbit: 472 x 512 km, 64.9° (Epoch: 27 January)

Event Time Altitude Azimuth Distance (km) Brightness Sun altitude
Rises 15:32:02 0° 229° (SW) 2,553 ? -16.5°
Reaches altitude 10° 15:34:12 10° 234° (SW) 1,683 ? -16.8°
Maximum altitude 15:37:53 54° 313° (NW) 611 ? -17.4°
Enters shadow 15:39:46 26° 20° (NNE) 1,008 ? -17.7°
